2014 TX85

Initial reported observation by Pan-STARRS 1, Haleakala on 2014-10-02.
(Discoverer will be defined when the object is numbered. See this note on how discoverers are determined.)

Orbit

Orbit type: Distant object

Note: WebGL enabled browser required.

epoch2023-09-13.0
epoch JD2460200.5
perihelion date2022-12-07.12538
perihelion JD2459920.62538
argument of perihelion (°)217.32530
ascending node (°)201.32116
inclination (°)21.78661
eccentricity0.1124777
perihelion distance (AU)36.2954187
Tisserand w.r.t. Jupiter5.3
ΔV w.r.t. Earth (km/sec)13.6
semimajor axis (AU)40.8952183
mean anomaly (°)1.05477
mean daily motion (°/day)0.00376870
aphelion distance (AU)45.495
period (years)262
P-vector [x]0.53606436
P-vector [y]0.83600619
P-vector [z]0.11716931
Q-vector [x]-0.83332099
Q-vector [y]0.54623649
Q-vector [z]-0.08486361
absolute magnitude6.93
phase slope0.15
uncertainty2
referenceMPEC 2023-W66
observations used119
oppositions10
arc length (days)4791
first opposition used2010
last opposition used2023
residual rms (arc-secs)0.53
perturbers coarse indicatorM-v
perturbers precise indicator003Ek
first observation date used2010-10-07.0
last observation date used2023-11-19.0
computer nameMPCLINUX
JD of orbit computation2458479.531335
perihelion JD uncertainty (days)1.2698E+00
argument of perihelion uncertainty (°)6.0447E-03
ascending node uncertainty (°)5.0449E-05
inclination uncertainty (°)4.1024E-05
eccentricity uncertainty 9.3032E-06
perihelion distance uncertainty (AU)1.0282E-04
Minimum Orbit Intersection Distances (in AU)
for orbit epoch: 2460200.5, reference: E2023-W66
Mercury35.9919
Venus35.5885
Earth35.3316
Mars34.8442
Jupiter31.4036
Saturn27.2715
Uranus16.8895
Neptune6.96287

Observations

120 total observations over interval: 2010 10 07.44598 – 2023 11 19.84501
These data are available for download (format description).

